Temperature
3 3 3 3 3 3 3 3 2 1 2 2 3 3 3 3 3 3 3 4 3 3 3 4 4 3 3 4 4 4 4 4 3 3 3 3 3 3
2 2 2 2 2 2 2 2 2 2 1 1 2 3 3 3 3 3 3 3 3 3 3 3 3 3 3 3 3 3 3 3 3 3 3 3 2 2
2 2 2 2 2 2 2 2 1 1 1 1 1 2 2 2 2 2 2 2 2 2 2 2 2 2 2 2 2 2 2 2 2 2 2 2 2 2
1 1 1 1 1 1 1 1 1 1 1 1 1 1 1 1 1 1 1 2 2 2 2 2 2 2 2 2 2 2 2 2 2 1 1 1 1 1
0 0 0 0 0 0 0 0 0 0 0 0 0 0 0 1 1 1 1 1 1 1 1 1 1 1 1 1 1 1 1 1 1 1 1 1 0 0
-0 -1 -1 -0 -0 -0 -1 -1 -0 -0 -1 -1 -1 -0 -0 -0 -0 -0 -0 0 0 1 1 1 1 1 1 0 0 0 0 0 -0 -0 -0 -0 -0 -0
-1 -1 -1 -1 -1 -1 -1 -1 -1 -1 -1 -1 -1 -1 -1 -1 -1 -1 -1 -1 -1 -0 -0 -0 -0 -0 -0 -0 -0 -0 -0 -0 -1 -1 -1 -1 -1 -1
-2 -2 -2 -2 -2 -2 -2 -2 -2 -2 -2 -2 -2 -2 -2 -2 -2 -2 -2 -2 -2 -2 -1 -1 -1 -1 -1 -1 -1 -1 -1 -1 -1 -1 -1 -1 -1 -1
-3 -3 -3 -3 -3 -3 -2 -2 -2 -2 -2 -2 -2 -2 -2 -2 -2 -2 -2 -2 -3 -2 -2 -2 -2 -2 -1 -1 -1 -1 -2 -2 -2 -2 -2 -2 -2 -2
-3 -3 -3 -3 -3 -3 -3 -3 -3 -3 -3 -3 -3 -3 -3 -3 -3 -3 -3 -3 -3 -3 -3 -3 -3 -3 -2 -2 -2 -2 -2 -2 -2 -2 -2 -3 -3 -3
-4 -4 -4 -4 -4 -4 -4 -4 -4 -4 -3 -3 -3 -3 -3 -3 -3 -4 -4 -4 -4 -4 -4 -4 -4 -3 -3 -3 -3 -3 -3 -3 -3 -3 -3 -3 -4 -4
-5 -5 -4 -4 -4 -4 -4 -4 -4 -4 -4 -4 -4 -4 -4 -4 -4 -4 -4 -4 -5 -5 -4 -4 -4 -4 -5 -4 -4 -4 -4 -4 -4 -4 -4 -4 -4 -5
-5 -5 -5 -5 -5 -5 -5 -5 -5 -5 -5 -5 -5 -4 -4 -4 -4 -4 -5 -5 -5 -5 -5 -5 -5 -5 -5 -5 -5 -4 -4 -4 -4 -4 -4 -5 -5 -5
-6 -6 -6 -6 -5 -5 -5 -5 -5 -5 -5 -5 -5 -5 -5 -5 -5 -5 -5 -5 -5 -5 -5 -5 -5 -5 -5 -6 -6 -5 -5 -5 -5 -5 -5 -5 -6 -6
-7 -6 -6 -6 -6 -6 -6 -6 -6 -6 -6 -6 -6 -6 -6 -6 -5 -5 -5 -5 -5 -5 -5 -6 -6 -6 -6 -6 -6 -6 -6 -6 -6 -6 -6 -6 -6 -6
-7 -7 -7 -7 -7 -7 -7 -7 -6 -6 -6 -6 -6 -6 -6 -6 -6 -6 -6 -6 -6 -6 -6 -6 -6 -6 -6 -6 -6 -6 -6 -7 -6 -7 -7 -7 -7 -7
-8 -7 -7 -7 -7 -7 -7 -7 -7 -7 -7 -7 -7 -7 -7 -7 -7 -7 -7 -7 -7 -7 -7 -7 -7 -7 -7 -7 -7 -7 -7 -7 -7 -7 -7 -8 -7 -7
-8 -8 -8 -8 -8 -8 -8 -8 -8 -8 -8 -8 -8 -8 -7 -7 -8 -8 -8 -8 -8 -8 -8 -8 -8 -8 -8 -8 -8 -8 -8 -8 -8 -8 -8 -8 -8 -8
-9 -8 -9 -8 -8 -8 -8 -8 -8 -8 -8 -8 -8 -8 -8 -8 -8 -8 -8 -8 -9 -9 -8 -8 -9 -9 -9 -9 -8 -8 -8 -8 -8 -8 -8 -9 -9 -8
-9 -9 -9 -9 -9 -9 -9 -9 -8 -8 -8 -8 -8 -8 -8 -9 -9 -9 -9 -9 -9 -9 -9 -9 -9 -9 -9 -9 -9 -9 -9 -9 -9 -9 -9 -9 -9 -9
-10 -10 -9 -9 -9 -9 -9 -9 -9 -9 -9 -9 -9 -9 -9 -9 -9 -9 -9 -9 -9 -10 -10 -10 -9 -9 -9 -9 -9 -9 -9 -9 -9 -9 -9 -10 -9 -9
-10 -10 -10 -10 -10 -10 -10 -10 -10 -9 -9 -9 -9 -9 -9 -9 -10 -10 -10 -10 -10 -10 -10 -10 -10 -10 -10 -10 -10 -10 -10 -10 -10 -10 -10 -10 -10 -10
-11 -11 -11 -10 -10 -10 -10 -10 -10 -10 -10 -10 -10 -10 -10 -10 -10 -10 -10 -10 -10 -10 -11 -11 -11 -11 -11 -11 -11 -11 -10 -10 -10 -10 -10 -10 -10 -10
Wind_Speed
6 6 5 4 4 4 4 4 4 4 5 4 3 3 4 5 4 5 6 6 6 6 6 5 5 5 5 5 5 6 6 6 7 7 6 6 6 7
5 6 6 5 4 4 5 5 5 5 5 4 3 2 4 4 5 5 6 6 8 7 7 6 6 6 6 6 6 6 7 7 8 7 6 6 6 7
7 7 7 6 5 5 5 5 5 5 6 5 3 3 3 4 4 5 5 6 7 7 7 7 7 8 7 7 7 7 6 6 7 6 6 7 7 8
9 8 8 6 7 6 5 6 6 6 6 6 5 4 5 5 5 5 5 6 6 6 8 8 9 9 8 8 8 7 7 6 7 7 7 8 8 9
9 9 9 8 8 7 7 6 5 5 5 6 6 4 4 4 4 4 5 5 5 6 8 8 8 9 9 9 9 9 8 8 8 8 8 9 9 9
9 9 9 10 9 9 7 7 6 6 6 6 5 5 4 4 4 4 4 4 4 5 6 7 7 8 10 10 10 10 9 9 9 9 9 9 9 9
9 9 9 10 11 9 8 7 7 7 6 6 6 5 5 4 5 4 5 4 4 4 4 4 5 6 7 9 10 11 11 10 10 10 10 10 10 10
9 9 9 10 11 12 12 12 10 9 8 7 7 7 8 6 5 5 4 4 5 4 4 5 5 6 7 8 10 11 12 12 11 11 11 11 11 11
9 9 8 8 10 9 10 11 12 12 12 10 10 10 9 7 7 7 7 7 6 4 4 5 5 6 6 8 11 12 13 12 12 12 11 11 11 11
8 9 9 8 8 9 8 8 9 9 10 10 9 9 9 8 8 8 7 6 5 4 4 5 5 6 5 7 10 11 12 12 12 12 12 12 12 12
8 8 9 9 10 10 8 8 8 8 9 11 12 12 12 11 9 6 6 6 6 5 4 4 4 4 5 6 7 9 10 11 12 12 12 12 11 11
6 7 9 10 10 10 9 8 9 9 7 7 8 9 10 10 11 9 8 7 6 5 5 4 4 2 3 4 4 6 7 10 11 11 11 11 11 8
5 5 6 9 10 10 9 8 10 8 6 7 7 6 6 6 7 8 8 7 7 6 5 4 4 4 4 3 4 5 6 6 7 8 10 11 11 9
5 5 6 8 9 10 8 8 9 7 5 6 6 6 5 5 5 5 6 6 7 7 7 7 5 6 5 5 4 4 5 6 6 6 6 8 10 11
5 6 7 8 8 7 8 8 7 5 5 5 6 6 5 5 4 3 3 3 4 5 6 7 6 6 6 7 6 5 4 5 6 6 5 6 6 6
5 5 6 6 6 6 6 5 5 5 5 5 5 4 3 3 4 3 3 3 3 3 4 5 7 6 6 7 7 6 6 5 5 5 5 6 6 6
3 3 3 3 4 4 4 4 4 4 5 4 4 4 3 4 3 3 3 3 4 4 4 3 3 3 5 6 6 7 6 5 5 4 5 6 6 6
3 3 4 4 4 4 4 4 4 4 5 4 4 4 4 4 3 3 3 4 4 4 4 3 2 3 3 4 6 7 6 5 4 5 5 6 7 6
2 3 3 3 4 4 4 4 4 4 4 4 4 4 4 4 4 4 4 4 4 4 4 4 4 4 5 6 4 5 6 5 5 5 5 6 7 6
2 3 3 3 3 3 3 4 4 4 4 4 4 4 4 4 4 4 4 5 4 4 4 4 4 5 6 5 4 4 6 6 5 5 5 5 5 7
3 3 3 3 3 3 3 3 4 4 4 4 4 5 4 5 5 5 4 5 5 4 5 5 4 4 3 2 3 4 4 5 6 5 5 4 5 4
3 3 3 3 3 3 3 3 3 3 4 4 4 4 4 4 4 5 5 4 4 4 4 4 3 3 3 4 4 4 4 4 4 5 5 5 4 3
3 3 3 3 3 3 3 3 3 3 3 3 3 4 4 4 4 4 4 4 4 4 3 3 3 3 3 3 4 4 4 4 3 3 2 3 5 6
Wind_Direction
222 223 227 232 232 227 219 213 224 242 248 247 234 215 225 230 225 222 222 220 228 235 239 234 232 242 249 253 260 268 264 267 269 276 264 261 274 272
224 226 230 231 231 230 222 222 230 233 246 248 253 238 221 233 231 231 229 225 223 226 232 230 233 240 245 247 254 263 262 261 261 263 266 266 271 278
225 226 229 230 230 233 231 226 226 223 240 255 266 257 240 236 235 233 228 224 220 219 225 232 237 241 241 242 247 254 263 263 261 262 266 274 277 281
223 224 228 227 229 231 233 227 225 224 231 247 257 254 251 237 235 233 230 228 225 223 227 235 238 238 239 239 242 247 253 255 260 261 264 269 277 280
227 226 228 227 230 230 229 228 229 230 229 237 249 252 256 241 233 235 234 232 229 229 231 234 238 240 241 241 242 244 243 245 252 257 260 266 272 277
231 232 231 229 230 231 226 230 229 226 225 230 239 244 246 244 233 231 241 240 244 240 233 237 240 242 242 243 243 242 242 243 247 251 254 259 264 271
232 234 234 233 235 231 228 228 225 223 223 226 233 241 241 233 234 236 243 256 259 238 242 240 237 240 240 239 240 240 241 242 244 247 248 253 259 264
234 236 237 236 234 232 232 232 230 225 224 227 233 235 239 241 240 236 238 250 257 227 242 258 244 247 244 241 242 243 243 242 243 246 249 253 255 260
235 236 237 234 232 233 236 237 238 238 237 233 235 236 238 234 233 236 237 242 253 241 235 255 248 253 248 244 247 247 244 242 244 247 248 252 254 257
235 233 234 233 230 232 235 237 238 238 239 239 241 243 243 240 233 236 241 251 266 248 230 251 251 256 254 250 249 244 242 247 249 247 249 252 253 256
238 235 232 234 233 231 233 236 242 247 250 246 247 249 249 241 233 228 225 229 250 248 233 240 251 266 267 259 246 242 244 247 248 249 251 252 254 259
244 237 235 237 237 232 229 231 239 244 242 245 250 250 246 238 229 222 220 226 241 245 218 218 235 244 258 255 252 249 246 248 248 251 253 253 257 259
247 244 241 241 245 243 238 236 243 247 244 240 242 244 242 237 231 228 227 228 235 246 217 214 234 236 243 258 268 255 243 241 246 250 250 251 254 254
250 250 248 247 248 248 246 244 248 247 243 238 239 238 238 240 238 237 233 237 243 247 224 219 234 235 243 257 262 258 250 245 243 245 246 250 252 256
255 254 255 253 253 249 247 246 245 242 238 236 237 240 240 241 238 239 237 237 252 247 234 228 233 233 240 248 253 254 261 258 238 239 247 250 252 253
262 253 251 254 251 250 246 243 240 239 238 241 241 243 237 229 231 229 233 228 251 265 252 238 234 237 246 247 250 249 248 242 239 245 251 255 254 249
258 257 253 248 240 239 239 238 236 237 240 242 240 239 234 230 233 226 230 237 244 251 263 267 255 248 253 254 251 246 248 254 248 245 251 258 258 254
244 248 250 245 242 240 238 239 239 236 237 237 229 228 231 232 235 231 226 234 240 246 252 252 251 267 265 264 247 246 249 252 251 246 249 257 263 261
235 247 254 256 250 245 242 240 242 241 233 227 227 229 230 231 227 227 228 233 240 245 247 244 241 246 254 266 259 236 247 253 250 252 251 253 261 264
254 255 261 264 265 258 250 248 248 241 231 230 233 232 228 229 229 229 230 234 240 249 252 247 242 247 253 262 270 273 250 246 248 252 259 265 269 268
266 266 264 262 260 259 260 260 253 245 240 236 235 232 226 225 229 231 235 236 242 246 248 257 263 273 280 266 264 270 271 257 257 258 259 261 269 267
272 272 272 270 265 261 260 258 258 252 239 235 233 231 226 225 227 229 230 234 242 247 258 266 269 267 265 253 256 268 281 289 278 264 264 260 257 246
275 275 275 276 273 269 261 254 254 254 246 244 238 230 222 220 222 225 230 234 237 238 244 258 270 270 266 252 254 262 270 282 287 288 291 293 276 274
Height
1503 1505 1506 1507 1508 1510 1511 1513 1514 1513 1513 1514 1514 1514 1515 1516 1516 1517 1517 1518 1518 1519 1520 1520 1521 1522 1522 1523 1523 1524 1524 1524 1524 1524 1524 1524 1524 1524
1498 1500 1501 1502 1503 1505 1506 1507 1509 1509 1508 1508 1509 1510 1510 1511 1512 1512 1512 1513 1514 1514 1514 1515 1516 1517 1517 1518 1518 1519 1519 1519 1519 1519 1519 1519 1519 1519
1493 1494 1496 1497 1498 1499 1501 1502 1503 1504 1503 1503 1504 1505 1505 1506 1507 1507 1508 1508 1508 1509 1509 1510 1511 1512 1512 1513 1513 1513 1514 1514 1514 1514 1514 1514 1514 1514
1487 1488 1489 1491 1492 1493 1495 1496 1497 1498 1499 1498 1499 1500 1501 1501 1502 1502 1503 1503 1503 1504 1505 1506 1506 1506 1507 1507 1507 1508 1508 1508 1508 1509 1509 1509 1509 1509
1480 1481 1483 1485 1486 1487 1489 1490 1491 1492 1493 1493 1493 1494 1495 1496 1496 1497 1497 1498 1498 1499 1500 1500 1500 1501 1501 1502 1502 1502 1502 1502 1502 1503 1503 1503 1503 1503
1474 1475 1476 1478 1480 1481 1482 1483 1485 1486 1487 1488 1488 1489 1490 1490 1491 1491 1492 1493 1493 1494 1494 1495 1495 1495 1495 1496 1496 1495 1496 1496 1496 1496 1496 1496 1496 1496
1467 1468 1470 1471 1473 1475 1476 1477 1479 1480 1481 1482 1482 1483 1484 1484 1485 1486 1486 1486 1487 1488 1488 1488 1489 1489 1489 1489 1489 1489 1489 1489 1489 1489 1489 1489 1489 1489
1460 1462 1463 1465 1466 1468 1469 1471 1473 1473 1475 1476 1476 1477 1477 1479 1480 1481 1481 1481 1481 1482 1482 1482 1483 1482 1482 1482 1482 1483 1483 1483 1483 1483 1482 1482 1482 1482
1454 1455 1457 1458 1460 1461 1463 1465 1466 1467 1469 1470 1470 1470 1472 1473 1475 1475 1475 1475 1475 1476 1477 1475 1476 1475 1476 1476 1476 1476 1476 1476 1476 1476 1475 1475 1475 1475
1448 1450 1451 1452 1454 1455 1457 1458 1459 1460 1462 1463 1464 1465 1467 1468 1469 1470 1470 1470 1470 1470 1471 1470 1469 1469 1469 1469 1469 1469 1469 1469 1469 1469 1468 1468 1468 1467
1443 1444 1445 1446 1448 1450 1451 1451 1453 1454 1456 1457 1458 1459 1460 1462 1463 1464 1463 1464 1463 1463 1464 1464 1463 1463 1463 1462 1463 1463 1462 1462 1462 1462 1462 1461 1461 1461
1437 1438 1439 1441 1442 1443 1444 1445 1446 1448 1450 1450 1451 1452 1454 1454 1455 1456 1457 1457 1457 1457 1457 1458 1457 1457 1456 1455 1456 1456 1456 1456 1455 1455 1455 1455 1455 1454
1432 1433 1434 1435 1436 1438 1439 1439 1440 1442 1443 1444 1445 1445 1446 1447 1448 1449 1450 1450 1450 1450 1451 1451 1451 1451 1451 1448 1448 1449 1449 1449 1449 1448 1448 1448 1448 1448
1427 1428 1429 1430 1431 1432 1433 1434 1436 1437 1437 1438 1438 1439 1440 1440 1441 1442 1443 1444 1444 1444 1444 1445 1444 1444 1444 1442 1442 1442 1443 1443 1442 1442 1442 1441 1441 1441
1423 1423 1424 1425 1426 1427 1428 1429 1430 1431 1431 1432 1432 1433 1434 1435 1435 1436 1436 1437 1437 1437 1438 1438 1438 1438 1438 1437 1436 1436 1436 1436 1436 1436 1435 1435 1434 1434
1418 1419 1420 1420 1421 1422 1423 1424 1424 1425 1426 1426 1427 1428 1428 1429 1429 1430 1430 1430 1430 1430 1432 1432 1432 1432 1431 1431 1431 1430 1430 1429 1429 1429 1429 1428 1428 1427
1414 1415 1415 1415 1416 1416 1417 1418 1419 1420 1421 1421 1422 1422 1423 1424 1424 1424 1425 1425 1425 1424 1425 1426 1426 1426 1426 1426 1425 1424 1424 1423 1423 1423 1422 1421 1421 1420
1410 1410 1410 1410 1411 1411 1412 1413 1414 1415 1415 1416 1417 1417 1418 1418 1418 1419 1420 1420 1420 1420 1420 1420 1420 1420 1420 1419 1420 1418 1418 1418 1417 1417 1416 1415 1413 1413
1406 1406 1406 1406 1406 1407 1408 1408 1409 1410 1411 1411 1411 1412 1413 1413 1413 1414 1414 1415 1415 1415 1415 1415 1415 1415 1414 1413 1412 1414 1413 1412 1411 1410 1410 1409 1407 1406
1401 1401 1402 1402 1402 1403 1403 1404 1404 1405 1406 1406 1407 1407 1408 1408 1409 1409 1409 1410 1410 1410 1410 1410 1411 1410 1410 1409 1407 1406 1407 1407 1405 1404 1404 1403 1402 1401
1397 1398 1398 1398 1398 1399 1399 1400 1400 1400 1401 1401 1402 1403 1403 1404 1404 1404 1405 1405 1405 1405 1405 1405 1405 1406 1405 1405 1403 1401 1401 1401 1401 1400 1398 1397 1396 1395
1394 1394 1394 1394 1394 1395 1395 1395 1396 1396 1396 1397 1397 1398 1398 1399 1399 1400 1400 1400 1400 1401 1400 1400 1400 1401 1400 1400 1398 1397 1396 1396 1395 1395 1394 1394 1392 1390
1390 1390 1390 1390 1391 1391 1391 1391 1392 1392 1392 1393 1393 1393 1394 1394 1395 1396 1396 1396 1396 1396 1396 1396 1396 1396 1396 1395 1394 1393 1392 1391 1391 1390 1390 1389 1389 1388